Location: Barruelo
(41.2448°N, 3.8231°W)
Time: 21:34:29
(UTC+00:00)

USA 238 DEB - Pass Details

Date: 11 December 2025
Orbit: 883 x 1328 km, 63.4° (Epoch: 10 January)

Event Time Altitude Azimuth Distance (km) Brightness Sun altitude
Rises 18:28:37 0° 219° (SW) 3,498 7.3 -18.5°
Reaches altitude 10° 18:31:02 10° 221° (SW) 2,588 6.5 -19.0°
Maximum altitude 18:37:02 75° 306° (NW) 995 3.6 -20.1°
Enters shadow 18:41:22 22° 29° (NNE) 2,025 4.8 -20.9°
